Regional Weather Roundup
Issued by NWS

Home | Current Version | Previous Version | Graphics & Text | Print | Product List | Glossary On
Versions: 1 2 3 4 5 6 7 8 9 10 11 12 13 14 15 16 17 18 19 20 21 22 23 24 25 26 27 28 29 30 31 32 33 34 35 36 37 38 39 40 41 42 43 44 45 46 47 48 49 50
000
ASUS43 KDTX 230601
RWRMI
MICHIGAN HOURLY REGIONAL WEATHER ROUNDUP
NATIONAL WEATHER SERVICE DETROIT/PONTIAC MI
200 AM EDT WED MAY 23 2018

NOTE: "FAIR" INDICATES FEW OR NO CLOUDS BELOW 12,000 FEET WITH NO
SIGNIFICANT WEATHER AND/OR OBSTRUCTION TO VISIBILITY.

MIZ047>049-052>055-059>063-066>070-074>076-081>083-230700-
SOUTHEAST LOWER MICHIGAN

CITY           SKY/WX    TMP DP  RH WIND       PRES   REMARKS
ADRIAN         FAIR      55  54  96 W3        30.09R
6HR MIN TEMP:  54; 6HR MAX TEMP:  64;

ALMA             N/A     51  51 100 CALM      30.08S FOG
6HR MIN TEMP:  50; 6HR MAX TEMP:  64;

ANN ARBOR      FAIR      54  54 100 NW3       30.07S
BAD AXE        FOG       42  42 100 CALM      30.06S VSB 1/4
6HR MIN TEMP:  41; 6HR MAX TEMP:  57;

CARO           FOG       45  44  95 CALM      30.05S VSB 1
DETROIT CITY   FAIR      55  52  89 NW3       30.06R
6HR MIN TEMP:  55; 6HR MAX TEMP:  64;

DETROIT        FAIR      56  52  86 W5        30.07R
6HR MIN TEMP:  56; 6HR MAX TEMP:  65;

FLINT          FOG       48  48 100 W6        30.07S VSB 1/2
6HR MIN TEMP:  48; 6HR MAX TEMP:  60;

GROSSE ILE     FAIR      54  52  94 W3        30.06R
6HR MIN TEMP:  54; 6HR MAX TEMP:  65;

HILLSDALE      FAIR      54  52  94 W5        30.09R FOG
HOWELL         FOG       51  51  99 CALM      30.08S VSB 3/4
6HR MIN TEMP:  50; 6HR MAX TEMP:  60;


CITY           SKY/WX    TMP DP  RH WIND       PRES   REMARKS
JACKSON        FAIR      52  52 100 W3        30.08S FOG
6HR MIN TEMP:  51; 6HR MAX TEMP:  63;

LAMBERTVILLE   FAIR      56  53  90 CALM      30.08R
6HR MIN TEMP:  56; 6HR MAX TEMP:  67;

LANSING        FAIR      53  52  96 W3        30.09S FOG
6HR MIN TEMP:  52; 6HR MAX TEMP:  62;

LAPEER         FOG       45  44  99 CALM      30.07R VSB 1/4
6HR MIN TEMP:  45; 6HR MAX TEMP:  59;

MASON          FAIR      54  52  94 W3        30.09R
6HR MIN TEMP:  53; 6HR MAX TEMP:  62;

MONROE         FAIR      55  53  93 CALM      30.07R
6HR MIN TEMP:  54; 6HR MAX TEMP:  65;

MT. CLEMENS    FAIR      52  52 100 CALM        N/A  FOG
6HR MIN TEMP:  51; 6HR MAX TEMP:  62;

PONTIAC        FAIR      54  53  97 W5        30.06R
6HR MIN TEMP:  53; 6HR MAX TEMP:  60;

PORT HOPE        N/A     49  48  97 W6        30.03S
6HR MIN TEMP:  47; 6HR MAX TEMP:  53;

PORT HURON     FOG       48  46  93 CALM      30.07R VSB<1/4
TRI CITIES     FOG       52  52 100 W6        30.07R VSB 1/4
6HR MIN TEMP:  52; 6HR MAX TEMP:  64;

MIDLAND        FOG       48  48 100 CALM      30.06S VSB 1/2
6HR MIN TEMP:  48; 6HR MAX TEMP:  64;

TROY           FAIR      56  54  91 NW3       30.08R
SAGINAW HB     FAIR      52  50  93 SW5       30.06R FOG
$$
MIZ043>046-050>051-056>058-064>065-071>073-077>080-230700-
SOUTHWEST LOWER MICHIGAN

CITY           SKY/WX    TMP DP  RH WIND       PRES   REMARKS
BATTLE CREEK   FAIR      51  49  92 SW3       30.10R
6HR MIN TEMP:  51; 6HR MAX TEMP:  62;

BENTON HARBOR  FAIR      46  43  89 CALM      30.10S FOG
6HR MIN TEMP:  45; 6HR MAX TEMP:  51;

BIG RAPIDS     FAIR      49  47  94 W3        30.09S
6HR MIN TEMP:  49; 6HR MAX TEMP:  66;

COLDWATER      FAIR      54  54  99 CALM      30.10R
6HR MIN TEMP:  54; 6HR MAX TEMP:  63;

FREMONT        FAIR      49  49 100 CALM      30.09S
6HR MIN TEMP:  49; 6HR MAX TEMP:  66;

HOLLAND        FAIR      47  45  93 CALM      30.10S
6HR MIN TEMP:  46; 6HR MAX TEMP:  51;

GRAND RAPIDS   FAIR      49  48  97 SW5       30.09S FOG
6HR MIN TEMP:  49; 6HR MAX TEMP:  62;

IONIA          FAIR      51  51  99 W6        30.08S
6HR MIN TEMP:  51; 6HR MAX TEMP:  63;

KALAMAZOO      FAIR      50  49  96 CALM      30.10R
6HR MIN TEMP:  50; 6HR MAX TEMP:  62;

LUDINGTON      CLOUDY    43  43 100 CALM      30.09S FOG
6HR MIN TEMP:  42; 6HR MAX TEMP:  55;

MARSHALL       FOG       51  50  95 CALM      30.09S VSB 1/2
6HR MIN TEMP:  51; 6HR MAX TEMP:  63;

MOUNT PLEASANT FAIR      55  55  99 W3        30.07R
6HR MIN TEMP:  55; 6HR MAX TEMP:  67;

MUSKEGON       FOG       46  43  89 CALM      30.11R VSB 1/4
6HR MIN TEMP:  45; 6HR MAX TEMP:  53;

SOUTH HAVEN    FOG       46  44  95 CALM      30.10S VSB 1/4
$$
MIZ016>042-230700-
NORTHERN LOWER MICHIGAN

CITY           SKY/WX    TMP DP  RH WIND       PRES   REMARKS
ALPENA         FAIR      54  48  80 W6        30.05R
6HR MIN TEMP:  53; 6HR MAX TEMP:  69;

BEAVER ISLAND  FAIR      49  47  93 W8        30.06S
6HR MIN TEMP:  46; 6HR MAX TEMP:  60;

BELLAIRE       FAIR      43  42  96 CALM      30.08S FOG
6HR MIN TEMP:  43; 6HR MAX TEMP:  65;

CADILLAC       FAIR      45  45  99 CALM      30.08S FOG
CHARLEVOIX     FAIR      47  47 100 E3        30.09S
6HR MIN TEMP:  46; 6HR MAX TEMP:  57;

FRANKFORT      FAIR      48  48 100 NW3       30.09R
GAYLORD        FAIR      46  43  89 SW3       30.07F
6HR MIN TEMP:  46; 6HR MAX TEMP:  66;

HARBOR SPRINGS FAIR      43  43  99 CALM      30.07S
HOUGHTON LAKE  FAIR      46  44  93 CALM      30.09R
6HR MIN TEMP:  45; 6HR MAX TEMP:  70;

MANISTEE       FOG       43  43 100 CALM      30.09S VSB 3/4
OSCODA         FAIR      48  47  97 SW5       30.03F
6HR MIN TEMP:  46; 6HR MAX TEMP:  57;

PELLSTON       FAIR      44  42  93 CALM      30.06S
6HR MIN TEMP:  44; 6HR MAX TEMP:  69;

ROGERS CITY    FAIR      50  46  83 W3        30.06S
TRAVERSE CITY  FAIR      47  45  93 CALM      30.06S
6HR MIN TEMP:  47; 6HR MAX TEMP:  59;

$$
MIZ007>008-015-230700-
EASTERN UPPER MICHIGAN

CITY           SKY/WX    TMP DP  RH WIND       PRES   REMARKS
KINROSS        FAIR      46  40  79 W5        30.06R
6HR MIN TEMP:  46; 6HR MAX TEMP:  62;

MACKINAC ISLAN FAIR      48  47  97 W7        30.05F
6HR MIN TEMP:  48; 6HR MAX TEMP:  58;

NEWBERRY       FAIR      46  45  97 CALM      30.06R
6HR MIN TEMP:  46; 6HR MAX TEMP:  67;

S. S. MARIE    FAIR      53  38  56 W8        30.04R
6HR MIN TEMP:  47; 6HR MAX TEMP:  63;

$$
MIZ004>006-011>014-085-230700-
CENTRAL UPPER MICHIGAN

CITY           SKY/WX    TMP DP  RH WIND       PRES   REMARKS
MANISTIQUE     FAIR      42  40  94 CALM      30.04F FOG
6HR MIN TEMP:  40; 6HR MAX TEMP:  54;

ESCANABA       FAIR      47  46  97 N6        30.04F
6HR MIN TEMP:  46; 6HR MAX TEMP:  60;

MENOMINEE      FAIR      54  52  93 CALM      30.04S
6HR MIN TEMP:  54; 6HR MAX TEMP:  72;

$$
MIZ001>003-009>011-084-230700-
WESTERN UPPER MICHIGAN

CITY           SKY/WX    TMP DP  RH WIND       PRES   REMARKS
IRON MOUNTAIN  FAIR      51  47  86 CALM      30.04S
6HR MIN TEMP:  50; 6HR MAX TEMP:  80;

HOUGHTON       FAIR      53  36  52 NW5       30.04S
6HR MIN TEMP:  50; 6HR MAX TEMP:  72;

COPPER HARBOR    N/A     54  38  54 W5        30.02S
6HR MIN TEMP:  47; 6HR MAX TEMP:  60;

IRONWOOD       FAIR      50  48  93 CALM      30.08S
6HR MIN TEMP:  49; 6HR MAX TEMP:  73;

$$

ABBREVIATIONS USED IN REMARKS
   TC - TEMPERATURE IN CELSIUS
  WCI - WIND CHILL INDEX
   HX - HEAT INDEX
  VSB - VISIBILITY





USA.gov is the U.S. government's official web portal to all federal, state and local government web resources and services.